Tracking 30995 objects as of 7-Jul-2025
HD Live streaming from Space Station
objects crossing your sky now

STARLINK-31315

Track STARLINK-31315 now!
10-day predictions
STARLINK-31315 is classified as:


NORAD ID: 58884
Int'l Code: 2024-020J
Perigee: 481.7 km
Apogee: 483.0 km
Inclination: 53.2 °
Period: 94.1 minutes
Semi major axis: 6853 km
RCS: Unknown
Launch date: January 29, 2024
Source: United States (US)
Launch site: AIR FORCE WESTERN TEST RANGE (AFWTR)
Your satellite tracking list
MOLNIYA 3-20
Track 1 satellite(s)




NASA's NSSDC Master Catalog

Two Line Element Set (TLE):
1 58884U 24020J   25187.89301916  .00001048  00000-0  47494-4 0  9996
2 58884  53.1614 358.7635 0000903  95.5901 264.5203 15.30206105 81793
Source of the keplerian elements: AFSPC